Location: *
(44.1392°N, 4.8079°E)
Time: 08:32:57
(UTC+00:00)

deb Agena D - Visible Passes

Search period start: 29 January 2022 00:00
Search period end: 08 February 2022 00:00
Orbit: 937 x 1065 km, 100.4° (Epoch: 28 January)

Date Brightness Start Highest point End Pass type
(mag) Time Alt. Az. Time Alt. Az. Time Alt. Az.
29 Jan ? 20:19:23 14° N 20:19:23 14° N 20:20:08 10° N visible
30 Jan ? 19:06:57 11° NNE 19:06:57 11° NNE 19:07:23 10° NNE visible
30 Jan ? 20:52:09 13° NNW 20:52:09 13° NNW 20:52:42 10° NNW visible
31 Jan ? 19:39:43 14° N 19:39:43 14° N 19:40:43 10° N visible
31 Jan ? 21:24:54 11° NNW 21:24:54 11° NNW 21:25:03 10° NNW visible
01 Feb ? 20:12:28 15° N 20:12:28 15° N 20:13:36 10° N visible
02 Feb ? 19:00:02 11° NNE 19:00:02 11° NNE 19:00:35 10° NNE visible
02 Feb ? 20:45:14 15° N 20:45:14 15° N 20:46:14 10° NNW visible
03 Feb ? 19:32:48 15° NNE 19:32:48 15° NNE 19:34:05 10° N visible
03 Feb ? 21:17:59 13° NNW 21:17:59 13° NNW 21:18:37 10° NNW visible
04 Feb ? 20:05:33 17° N 20:05:33 17° N 20:07:02 10° N visible
04 Feb ? 21:50:45 10° NNW 21:50:45 10° NNW 21:50:45 10° NNW visible
05 Feb ? 18:53:06 11° NNE 18:53:06 11° NNE 18:53:42 10° NNE visible
05 Feb ? 20:38:18 17° N 20:38:18 17° N 20:39:43 10° N visible
06 Feb ? 19:25:51 15° NNE 19:25:51 15° NNE 19:27:25 10° N visible
06 Feb ? 21:11:03 16° NNW 21:11:03 16° NNW 21:12:10 10° NNW visible
07 Feb ? 19:58:37 18° N 19:58:37 18° N 20:00:27 10° N visible
07 Feb ? 21:43:49 13° NNW 21:43:49 13° NNW 21:44:22 10° NNW visible
